Location: Unspecified
(0.0000°N, 0.0000°E)
Time: 12:21:13
(UTC+00:00)

Tiros 1 - All Passes

Search period start: 28 July 2014 00:00
Search period end: 07 August 2014 00:00
Orbit: 634 x 667 km, 48.4° (Epoch: 26 July)

Date Brightness Start Highest point End Pass type
(mag) Time Alt. Az. Time Alt. Az. Time Alt. Az.
28 Jul - 04:46:28 10° SW 04:51:07 75° NW 04:55:43 10° NE visible
28 Jul - 15:19:26 10° N 15:22:25 16° NE 15:25:25 10° E daylight
28 Jul - 17:00:04 10° WNW 17:04:32 40° SW 17:09:03 10° SSE daylight
29 Jul - 03:32:07 10° S 03:36:09 28° SE 03:40:07 10° ENE visible
29 Jul - 05:14:42 10° W 05:18:14 21° NW 05:21:44 10° N visible
29 Jul - 15:44:55 10° NNW 15:49:33 54° NE 15:54:15 10° SE daylight
29 Jul - 17:29:43 10° WSW 17:31:44 13° SW 17:33:46 10° SSW daylight
30 Jul - 03:58:35 10° SW 04:03:15 81° NW 04:07:52 10° NE visible
30 Jul - 14:31:47 10° NNE 14:34:32 15° NE 14:37:18 10° E daylight
30 Jul - 16:12:08 10° WNW 16:16:39 43° SW 16:21:14 10° SSE daylight
31 Jul - 02:44:21 10° S 02:48:17 26° SE 02:52:10 10° ENE visible
31 Jul - 04:26:42 10° WSW 04:30:22 23° NW 04:34:00 10° N visible
31 Jul - 14:57:05 10° NNW 15:01:41 50° NE 15:06:19 10° SE daylight
31 Jul - 16:41:31 10° W 16:43:51 13° SW 16:46:12 10° SSW daylight
01 Aug - 03:10:43 10° SW 03:15:24 87° NW 03:20:01 10° NE visible
01 Aug - 13:44:10 10° NNE 13:46:39 14° NE 13:49:09 10° E daylight
01 Aug - 15:24:13 10° NW 15:28:47 46° SW 15:33:23 10° SSE daylight
02 Aug - 01:56:34 10° S 02:00:24 25° SE 02:04:12 10° ENE night (unlit)
02 Aug - 03:38:42 10° WSW 03:42:30 25° NW 03:46:16 10° N visible
02 Aug - 14:09:16 10° NNW 14:13:48 46° NE 14:18:23 10° SE daylight
02 Aug - 15:53:23 10° W 15:55:58 14° SW 15:58:34 10° SSW daylight
03 Aug - 02:22:50 10° SW 02:27:32 87° SE 02:32:10 10° NE night (unlit)
03 Aug - 12:56:35 10° NNE 12:58:46 13° NE 13:00:57 10° ENE daylight
03 Aug - 14:36:19 10° NW 14:40:54 50° SW 14:45:33 10° SSE daylight
04 Aug - 01:08:48 10° S 01:12:32 23° SE 01:16:14 10° ENE night (unlit)
04 Aug - 02:50:42 10° WSW 02:54:38 26° NW 02:58:31 10° N visible
04 Aug - 13:21:27 10° NNW 13:25:55 42° NE 13:30:26 10° ESE daylight
04 Aug - 15:05:16 10° W 15:08:04 15° SW 15:10:54 10° SSW daylight
05 Aug - 01:34:57 10° SW 01:39:40 81° SE 01:44:18 10° NE night (unlit)
05 Aug - 12:09:05 10° NNE 12:10:53 12° NE 12:12:41 10° ENE daylight
05 Aug - 13:48:24 10° NW 13:53:01 54° SW 13:57:42 10° SSE daylight
06 Aug - 00:21:02 10° S 00:24:39 22° SE 00:28:14 10° E night (unlit)
06 Aug - 02:02:43 10° WSW 02:06:45 28° NW 02:10:45 10° N night (unlit)
06 Aug - 12:33:39 10° NNW 12:38:03 39° NE 12:42:29 10° ESE daylight
06 Aug - 14:17:12 10° W 14:20:11 17° SW 14:23:12 10° S daylight
